Location: Spring Creek
(38.2870°N, 100.2160°W)
Time: 21:54:08
(UTC+00:00)

Cosmos 1602 - Pass Details

Date: 08 May 2021
Orbit: 514 x 532 km, 82.5° (Epoch: 20 June)

Event Time Altitude Azimuth Distance (km) Brightness Sun altitude
Rises 03:34:09 0° 358° (N) 2,649 8.0 -19.9°
Reaches altitude 10° 03:36:20 10° 3° (N) 1,760 6.9 -20.2°
Enters shadow 03:39:59 53° 73° (ENE) 649 3.9 -20.7°
